Year,Month,Day,Hour,Minute,Value (Times are PST for temperature in C)
2011,08,20,00,00,16.50
2011,08,20,00,01,16.50
2011,08,20,00,02,16.50
2011,08,20,00,03,16.50
2011,08,20,00,04,16.40
2011,08,20,00,05,16.40
2011,08,20,00,06,16.40
2011,08,20,00,07,16.40
2011,08,20,00,08,16.40
2011,08,20,00,09,16.40
2011,08,20,00,10,16.40
2011,08,20,00,11,16.40
2011,08,20,00,12,16.30
2011,08,20,00,13,16.30
2011,08,20,00,14,16.30
2011,08,20,00,15,16.30
2011,08,20,00,16,16.30
2011,08,20,00,17,16.30
2011,08,20,00,18,16.30
2011,08,20,00,19,16.30
2011,08,20,00,20,16.30
2011,08,20,00,21,16.20
2011,08,20,00,22,16.20
2011,08,20,00,23,16.20
2011,08,20,00,24,16.20
2011,08,20,00,25,16.20
2011,08,20,00,26,16.20
2011,08,20,00,27,16.10
2011,08,20,00,28,16.10
2011,08,20,00,29,16.10
2011,08,20,00,30,16.10
2011,08,20,00,31,16.10
2011,08,20,00,32,16.10
2011,08,20,00,33,16.00
2011,08,20,00,34,16.00
2011,08,20,00,35,16.00
2011,08,20,00,36,16.00
2011,08,20,00,37,15.90
2011,08,20,00,38,15.90
2011,08,20,00,39,15.90
2011,08,20,00,40,15.90
2011,08,20,00,41,15.90
2011,08,20,00,42,15.90
2011,08,20,00,43,15.90
2011,08,20,00,44,15.90
2011,08,20,00,45,15.90
2011,08,20,00,46,15.80
2011,08,20,00,47,15.80
2011,08,20,00,48,15.80
2011,08,20,00,49,15.80
2011,08,20,00,50,15.80
2011,08,20,00,51,15.80
2011,08,20,00,52,15.80
2011,08,20,00,53,15.80
2011,08,20,00,54,15.80
2011,08,20,00,55,15.80
2011,08,20,00,56,15.80
2011,08,20,00,57,15.80
2011,08,20,00,58,15.80
2011,08,20,00,59,15.80
2011,08,20,01,00,15.80
2011,08,20,01,01,15.70
2011,08,20,01,02,15.70
2011,08,20,01,03,15.70
2011,08,20,01,04,15.70
2011,08,20,01,05,15.70
2011,08,20,01,06,15.60
2011,08,20,01,07,15.60
2011,08,20,01,08,15.60
2011,08,20,01,09,15.50
2011,08,20,01,10,15.50
2011,08,20,01,11,15.50
2011,08,20,01,12,15.40
2011,08,20,01,13,15.40
2011,08,20,01,14,15.40
2011,08,20,01,15,15.40
2011,08,20,01,16,15.40
2011,08,20,01,17,15.40
2011,08,20,01,18,15.40
2011,08,20,01,19,15.30
2011,08,20,01,20,15.30
2011,08,20,01,21,15.30
2011,08,20,01,22,15.30
2011,08,20,01,23,15.30
2011,08,20,01,24,15.20
2011,08,20,01,25,15.20
2011,08,20,01,26,15.20
2011,08,20,01,27,15.20
2011,08,20,01,28,15.20
2011,08,20,01,29,15.20
2011,08,20,01,30,15.20
2011,08,20,01,31,15.20
2011,08,20,01,32,15.20
2011,08,20,01,33,15.20
2011,08,20,01,34,15.20
2011,08,20,01,35,15.20
2011,08,20,01,36,15.20
2011,08,20,01,37,15.10
2011,08,20,01,38,15.10
2011,08,20,01,39,15.10
2011,08,20,01,40,15.10
2011,08,20,01,41,15.10
2011,08,20,01,42,15.10
2011,08,20,01,43,15.00
2011,08,20,01,44,15.00
2011,08,20,01,45,15.00
2011,08,20,01,46,15.00
2011,08,20,01,47,14.90
2011,08,20,01,48,14.90
2011,08,20,01,49,14.90
2011,08,20,01,50,14.90
2011,08,20,01,51,14.90
2011,08,20,01,52,14.80
2011,08,20,01,53,14.80
2011,08,20,01,54,14.80
2011,08,20,01,55,14.70
2011,08,20,01,56,14.70
2011,08,20,01,57,14.70
2011,08,20,01,58,14.70
2011,08,20,01,59,14.70
2011,08,20,02,00,14.70
2011,08,20,02,01,14.60
2011,08,20,02,02,14.60
2011,08,20,02,03,14.60
2011,08,20,02,04,14.60
2011,08,20,02,05,14.60
2011,08,20,02,06,14.60
2011,08,20,02,07,14.60
2011,08,20,02,08,14.60
2011,08,20,02,09,14.60
2011,08,20,02,10,14.60
2011,08,20,02,11,14.60
2011,08,20,02,12,14.60
2011,08,20,02,13,14.60
2011,08,20,02,14,14.60
2011,08,20,02,15,14.60
2011,08,20,02,16,14.60
2011,08,20,02,17,14.60
2011,08,20,02,18,14.60
2011,08,20,02,19,14.60
2011,08,20,02,20,14.60
2011,08,20,02,21,14.60
2011,08,20,02,22,14.60
2011,08,20,02,23,14.60
2011,08,20,02,24,14.60
2011,08,20,02,25,14.60
2011,08,20,02,26,14.60
2011,08,20,02,27,14.50
2011,08,20,02,28,14.50
2011,08,20,02,29,14.50
2011,08,20,02,30,14.50
2011,08,20,02,31,14.40
2011,08,20,02,32,14.50
2011,08,20,02,33,14.40
2011,08,20,02,34,14.40
2011,08,20,02,35,14.40
2011,08,20,02,36,14.40
2011,08,20,02,37,14.40
2011,08,20,02,38,14.40
2011,08,20,02,39,14.40
2011,08,20,02,40,14.40
2011,08,20,02,41,14.40
2011,08,20,02,42,14.40
2011,08,20,02,43,14.40
2011,08,20,02,44,14.40
2011,08,20,02,45,14.40
2011,08,20,02,46,14.30
2011,08,20,02,47,14.30
2011,08,20,02,48,14.30
2011,08,20,02,49,14.30
2011,08,20,02,50,14.30
2011,08,20,02,51,14.30
2011,08,20,02,52,14.30
2011,08,20,02,53,14.30
2011,08,20,02,54,14.20
2011,08,20,02,55,14.20
2011,08,20,02,56,14.20
2011,08,20,02,57,14.20
2011,08,20,02,58,14.20
2011,08,20,02,59,14.10
2011,08,20,03,00,14.10
2011,08,20,03,01,14.10
2011,08,20,03,02,14.10
2011,08,20,03,03,14.10
2011,08,20,03,04,14.10
2011,08,20,03,05,14.00
2011,08,20,03,06,14.00
2011,08,20,03,07,13.90
2011,08,20,03,08,13.90
2011,08,20,03,09,13.90
2011,08,20,03,10,13.90
2011,08,20,03,11,13.90
2011,08,20,03,12,13.90
2011,08,20,03,13,13.90
2011,08,20,03,14,13.90
2011,08,20,03,15,13.90
2011,08,20,03,16,13.90
2011,08,20,03,17,13.80
2011,08,20,03,18,13.80
2011,08,20,03,19,13.90
2011,08,20,03,20,13.80
2011,08,20,03,21,13.80
2011,08,20,03,22,13.80
2011,08,20,03,23,13.80
2011,08,20,03,24,13.90
2011,08,20,03,25,13.90
2011,08,20,03,26,13.90
2011,08,20,03,27,13.90
2011,08,20,03,28,14.00
2011,08,20,03,29,14.00
2011,08,20,03,30,14.00
2011,08,20,03,31,14.00
2011,08,20,03,32,14.10
2011,08,20,03,33,14.10
2011,08,20,03,34,14.10
2011,08,20,03,35,14.10
2011,08,20,03,36,14.10
2011,08,20,03,37,14.10
2011,08,20,03,38,14.10
2011,08,20,03,39,14.10
2011,08,20,03,40,14.10
2011,08,20,03,41,14.20
2011,08,20,03,42,14.20
2011,08,20,03,43,14.20
2011,08,20,03,44,14.20
2011,08,20,03,45,14.20
2011,08,20,03,46,14.20
2011,08,20,03,47,14.20
2011,08,20,03,48,14.20
2011,08,20,03,49,14.20
2011,08,20,03,50,14.20
2011,08,20,03,51,14.20
2011,08,20,03,52,14.10
2011,08,20,03,53,14.10
2011,08,20,03,54,14.10
2011,08,20,03,55,14.10
2011,08,20,03,56,14.10
2011,08,20,03,57,14.10
2011,08,20,03,58,14.10
2011,08,20,03,59,14.10
2011,08,20,04,00,14.00
2011,08,20,04,01,14.00
2011,08,20,04,02,14.00
2011,08,20,04,03,14.00
2011,08,20,04,04,14.00
2011,08,20,04,05,14.00
2011,08,20,04,06,13.90
2011,08,20,04,07,13.90
2011,08,20,04,08,13.90
2011,08,20,04,09,14.00
2011,08,20,04,10,13.90
2011,08,20,04,11,13.90
2011,08,20,04,12,14.00
2011,08,20,04,13,14.00
2011,08,20,04,14,13.90
2011,08,20,04,15,13.90
2011,08,20,04,16,13.90
2011,08,20,04,17,13.90
2011,08,20,04,18,13.90
2011,08,20,04,19,13.90
2011,08,20,04,20,13.90
2011,08,20,04,21,13.90
2011,08,20,04,22,13.90
2011,08,20,04,23,13.90
2011,08,20,04,24,13.90
2011,08,20,04,25,13.80
2011,08,20,04,26,13.80
2011,08,20,04,27,13.80
2011,08,20,04,28,13.80
2011,08,20,04,29,13.80
2011,08,20,04,30,13.70
2011,08,20,04,31,13.70
2011,08,20,04,32,13.70
2011,08,20,04,33,13.70
2011,08,20,04,34,13.70
2011,08,20,04,35,13.70
2011,08,20,04,36,13.70
2011,08,20,04,37,13.60
2011,08,20,04,38,13.60
2011,08,20,04,39,13.60
2011,08,20,04,40,13.60
2011,08,20,04,41,13.50
2011,08,20,04,42,13.50
2011,08,20,04,43,13.50
2011,08,20,04,44,13.40
2011,08,20,04,45,13.40
2011,08,20,04,46,13.40
2011,08,20,04,47,13.40
2011,08,20,04,48,13.40
2011,08,20,04,49,13.40
2011,08,20,04,50,13.40
2011,08,20,04,51,13.40
2011,08,20,04,52,13.40
2011,08,20,04,53,13.40
2011,08,20,04,54,13.40
2011,08,20,04,55,13.40
2011,08,20,04,56,13.40
2011,08,20,04,57,13.40
2011,08,20,04,58,13.30
2011,08,20,04,59,13.30
2011,08,20,05,00,13.30
2011,08,20,05,01,13.30
2011,08,20,05,02,13.20
2011,08,20,05,03,13.20
2011,08,20,05,04,13.20
2011,08,20,05,05,13.20
2011,08,20,05,06,13.10
2011,08,20,05,07,13.10
2011,08,20,05,08,13.10
2011,08,20,05,09,13.10
2011,08,20,05,10,13.00
2011,08,20,05,11,13.00
2011,08,20,05,12,13.00
2011,08,20,05,13,12.90
2011,08,20,05,14,12.90
2011,08,20,05,15,12.90
2011,08,20,05,16,12.90
2011,08,20,05,17,12.90
2011,08,20,05,18,12.90
2011,08,20,05,19,12.90
2011,08,20,05,20,12.90
2011,08,20,05,21,12.90
2011,08,20,05,22,12.90
2011,08,20,05,23,12.90
2011,08,20,05,24,12.90
2011,08,20,05,25,12.90
2011,08,20,05,26,12.90
2011,08,20,05,27,12.90
2011,08,20,05,28,12.90
2011,08,20,05,29,12.90
2011,08,20,05,30,12.90
2011,08,20,05,31,12.90
2011,08,20,05,32,12.90
2011,08,20,05,33,12.80
2011,08,20,05,34,12.80
2011,08,20,05,35,12.80
2011,08,20,05,36,12.80
2011,08,20,05,37,12.80
2011,08,20,05,38,12.80
2011,08,20,05,39,12.80
2011,08,20,05,40,12.80
2011,08,20,05,41,12.70
2011,08,20,05,42,12.70
2011,08,20,05,43,12.70
2011,08,20,05,44,12.70
2011,08,20,05,45,12.70
2011,08,20,05,46,12.70
2011,08,20,05,47,12.70
2011,08,20,05,48,12.70
2011,08,20,05,49,12.70
2011,08,20,05,50,12.70
2011,08,20,05,51,12.70
2011,08,20,05,52,12.70
2011,08,20,05,53,12.70
2011,08,20,05,54,12.70
2011,08,20,05,55,12.70
2011,08,20,05,56,12.70
2011,08,20,05,57,12.60
2011,08,20,05,58,12.60
2011,08,20,05,59,12.60
2011,08,20,06,00,12.60
2011,08,20,06,01,12.60
2011,08,20,06,02,12.60
2011,08,20,06,03,12.60
2011,08,20,06,04,12.60
2011,08,20,06,05,12.60
2011,08,20,06,06,12.60
2011,08,20,06,07,12.50
2011,08,20,06,08,12.50
2011,08,20,06,09,12.50
2011,08,20,06,10,12.40
2011,08,20,06,11,12.40
2011,08,20,06,12,12.40
2011,08,20,06,13,12.40
2011,08,20,06,14,12.40
2011,08,20,06,15,12.40
2011,08,20,06,16,12.30
2011,08,20,06,17,12.30
2011,08,20,06,18,12.30
2011,08,20,06,19,12.30
2011,08,20,06,20,12.40
2011,08,20,06,21,12.40
2011,08,20,06,22,12.40
2011,08,20,06,23,12.40
2011,08,20,06,24,12.40
2011,08,20,06,25,12.40
2011,08,20,06,26,12.30
2011,08,20,06,27,12.30
2011,08,20,06,28,12.30
2011,08,20,06,29,12.30
2011,08,20,06,30,12.30
2011,08,20,06,31,12.30
2011,08,20,06,32,12.30
2011,08,20,06,33,12.30
2011,08,20,06,34,12.30
2011,08,20,06,35,12.30
2011,08,20,06,36,12.30
2011,08,20,06,37,12.30
2011,08,20,06,38,12.30
2011,08,20,06,39,12.30
2011,08,20,06,40,12.30
2011,08,20,06,41,12.30
2011,08,20,06,42,12.30
2011,08,20,06,43,12.30
2011,08,20,06,44,12.30
2011,08,20,06,45,12.30
2011,08,20,06,46,12.30
2011,08,20,06,47,12.30
2011,08,20,06,48,12.30
2011,08,20,06,49,12.30
2011,08,20,06,50,12.30
2011,08,20,06,51,12.30
2011,08,20,06,52,12.30
2011,08,20,06,53,12.30
2011,08,20,06,54,12.30
2011,08,20,06,55,12.30
2011,08,20,06,56,12.30
2011,08,20,06,57,12.30
2011,08,20,06,58,12.30
2011,08,20,06,59,12.30
2011,08,20,07,00,12.30
2011,08,20,07,01,12.30
2011,08,20,07,02,12.30
2011,08,20,07,03,12.30
2011,08,20,07,04,12.30
2011,08,20,07,05,12.30
2011,08,20,07,06,12.30
2011,08,20,07,07,12.30
2011,08,20,07,08,12.30
2011,08,20,07,09,12.20
2011,08,20,07,10,12.30
2011,08,20,07,11,12.30
2011,08,20,07,12,12.30
2011,08,20,07,13,12.30
2011,08,20,07,14,12.30
2011,08,20,07,15,12.30
2011,08,20,07,16,12.30
2011,08,20,07,17,12.30
2011,08,20,07,18,12.30
2011,08,20,07,19,12.30
2011,08,20,07,20,12.30
2011,08,20,07,21,12.40
2011,08,20,07,22,12.40
2011,08,20,07,23,12.40
2011,08,20,07,24,12.40
2011,08,20,07,25,12.40
2011,08,20,07,26,12.40
2011,08,20,07,27,12.40
2011,08,20,07,28,12.40
2011,08,20,07,29,12.50
2011,08,20,07,30,12.50
2011,08,20,07,31,12.50
2011,08,20,07,32,12.60
2011,08,20,07,33,12.60
2011,08,20,07,34,12.60
2011,08,20,07,35,12.70
2011,08,20,07,36,12.80
2011,08,20,07,37,12.80
2011,08,20,07,38,12.90
2011,08,20,07,39,13.00
2011,08,20,07,40,13.10
2011,08,20,07,41,13.20
2011,08,20,07,42,13.30
2011,08,20,07,43,13.30
2011,08,20,07,44,13.40
2011,08,20,07,45,13.50
2011,08,20,07,46,13.50
2011,08,20,07,47,13.60
2011,08,20,07,48,13.70
2011,08,20,07,49,13.80
2011,08,20,07,50,13.90
2011,08,20,07,51,14.00
2011,08,20,07,52,14.10
2011,08,20,07,53,14.20
2011,08,20,07,54,14.30
2011,08,20,07,55,14.30
2011,08,20,07,56,14.40
2011,08,20,07,57,14.50
2011,08,20,07,58,14.50
2011,08,20,07,59,14.60
2011,08,20,08,00,14.60
2011,08,20,08,01,14.70
2011,08,20,08,02,14.70
2011,08,20,08,03,14.80
2011,08,20,08,04,14.80
2011,08,20,08,05,14.90
2011,08,20,08,06,14.90
2011,08,20,08,07,14.90
2011,08,20,08,08,15.00
2011,08,20,08,09,15.00
2011,08,20,08,10,15.10
2011,08,20,08,11,15.10
2011,08,20,08,12,15.10
2011,08,20,08,13,15.10
2011,08,20,08,14,15.10
2011,08,20,08,15,15.10
2011,08,20,08,16,15.10
2011,08,20,08,17,15.10
2011,08,20,08,18,15.20
2011,08,20,08,19,15.20
2011,08,20,08,20,15.30
2011,08,20,08,21,15.30
2011,08,20,08,22,15.30
2011,08,20,08,23,15.40
2011,08,20,08,24,15.50
2011,08,20,08,25,15.60
2011,08,20,08,26,15.60
2011,08,20,08,27,15.70
2011,08,20,08,28,15.70
2011,08,20,08,29,15.80
2011,08,20,08,30,15.90
2011,08,20,08,31,16.00
2011,08,20,08,32,16.00
2011,08,20,08,33,16.10
2011,08,20,08,34,16.20
2011,08,20,08,35,16.20
2011,08,20,08,36,16.30
2011,08,20,08,37,16.30
2011,08,20,08,38,16.30
2011,08,20,08,39,16.40
2011,08,20,08,40,16.40
2011,08,20,08,41,16.50
2011,08,20,08,42,16.60
2011,08,20,08,43,16.60
2011,08,20,08,44,16.60
2011,08,20,08,45,16.70
2011,08,20,08,46,16.70
2011,08,20,08,47,16.80
2011,08,20,08,48,16.90
2011,08,20,08,49,16.90
2011,08,20,08,50,16.90
2011,08,20,08,51,17.00
2011,08,20,08,52,17.00
2011,08,20,08,53,17.10
2011,08,20,08,54,17.10
2011,08,20,08,55,17.10
2011,08,20,08,56,17.10
2011,08,20,08,57,17.20
2011,08,20,08,58,17.20
2011,08,20,08,59,17.30
2011,08,20,09,00,17.30
2011,08,20,09,01,17.40
2011,08,20,09,02,17.40
2011,08,20,09,03,17.40
2011,08,20,09,04,17.40
2011,08,20,09,05,17.40
2011,08,20,09,06,17.40
2011,08,20,09,07,17.40
2011,08,20,09,08,17.50
2011,08,20,09,09,17.50
2011,08,20,09,10,17.50
2011,08,20,09,11,17.40
2011,08,20,09,12,17.40
2011,08,20,09,13,17.30
2011,08,20,09,14,17.30
2011,08,20,09,15,17.20
2011,08,20,09,16,17.20
2011,08,20,09,17,17.20
2011,08,20,09,18,17.30
2011,08,20,09,19,17.30
2011,08,20,09,20,17.30
2011,08,20,09,21,17.30
2011,08,20,09,22,17.40
2011,08,20,09,23,17.40
2011,08,20,09,24,17.40
2011,08,20,09,25,17.50
2011,08,20,09,26,17.50
2011,08,20,09,27,17.50
2011,08,20,09,28,17.50
2011,08,20,09,29,17.50
2011,08,20,09,30,17.60
2011,08,20,09,31,17.60
2011,08,20,09,32,17.50
2011,08,20,09,33,17.50
2011,08,20,09,34,17.60
2011,08,20,09,35,17.60
2011,08,20,09,36,17.60
2011,08,20,09,37,17.70
2011,08,20,09,38,17.80
2011,08,20,09,39,17.90
2011,08,20,09,40,18.00
2011,08,20,09,41,18.10
2011,08,20,09,42,18.20
2011,08,20,09,43,18.40
2011,08,20,09,44,18.50
2011,08,20,09,45,18.60
2011,08,20,09,46,18.70
2011,08,20,09,47,18.90
2011,08,20,09,48,19.00
2011,08,20,09,49,19.20
2011,08,20,09,50,19.30
2011,08,20,09,51,19.50
2011,08,20,09,52,19.60
2011,08,20,09,53,19.60
2011,08,20,09,54,19.70
2011,08,20,09,55,19.80
2011,08,20,09,56,20.00
2011,08,20,09,57,20.20
2011,08,20,09,58,20.40
2011,08,20,09,59,20.50
2011,08,20,10,00,20.50
2011,08,20,10,01,20.60
2011,08,20,10,02,20.60
2011,08,20,10,03,20.70
2011,08,20,10,04,20.70
2011,08,20,10,05,20.70
2011,08,20,10,06,20.60
2011,08,20,10,07,20.60
2011,08,20,10,08,20.60
2011,08,20,10,09,20.50
2011,08,20,10,10,20.50
2011,08,20,10,11,20.50
2011,08,20,10,12,20.50
2011,08,20,10,13,20.50
2011,08,20,10,14,20.50
2011,08,20,10,15,20.50
2011,08,20,10,16,20.50
2011,08,20,10,17,20.50
2011,08,20,10,18,20.60
2011,08,20,10,19,20.60
2011,08,20,10,20,20.80
2011,08,20,10,21,20.90
2011,08,20,10,22,21.00
2011,08,20,10,23,21.20
2011,08,20,10,24,21.30
2011,08,20,10,25,21.30
2011,08,20,10,26,21.30
2011,08,20,10,27,21.30
2011,08,20,10,28,21.30
2011,08,20,10,29,21.30
2011,08,20,10,30,21.30
2011,08,20,10,31,21.20
2011,08,20,10,32,21.20
2011,08,20,10,33,21.20
2011,08,20,10,34,21.20
2011,08,20,10,35,21.20
2011,08,20,10,36,21.20
2011,08,20,10,37,21.30
2011,08,20,10,38,21.30
2011,08,20,10,39,21.40
2011,08,20,10,40,21.40
2011,08,20,10,41,21.50
2011,08,20,10,42,21.50
2011,08,20,10,43,21.60
2011,08,20,10,44,21.60
2011,08,20,10,45,21.60
2011,08,20,10,46,21.60
2011,08,20,10,47,21.70
2011,08,20,10,48,21.70
2011,08,20,10,49,21.70
2011,08,20,10,50,21.70
2011,08,20,10,51,21.70
2011,08,20,10,52,21.60
2011,08,20,10,53,21.70
2011,08,20,10,54,21.70
2011,08,20,10,55,21.80
2011,08,20,10,56,21.80
2011,08,20,10,57,21.90
2011,08,20,10,58,21.90
2011,08,20,10,59,21.90
2011,08,20,11,00,22.00
2011,08,20,11,01,22.00
2011,08,20,11,02,22.10
2011,08,20,11,03,22.20
2011,08,20,11,04,22.20
2011,08,20,11,05,22.20
2011,08,20,11,06,22.30
2011,08,20,11,07,22.30
2011,08,20,11,08,22.30
2011,08,20,11,09,22.30
2011,08,20,11,10,22.30
2011,08,20,11,11,22.30
2011,08,20,11,12,22.30
2011,08,20,11,13,22.30
2011,08,20,11,14,22.40
2011,08,20,11,15,22.50
2011,08,20,11,16,22.70
2011,08,20,11,17,22.80
2011,08,20,11,18,22.90
2011,08,20,11,19,23.10
2011,08,20,11,20,23.20
2011,08,20,11,21,23.30
2011,08,20,11,22,23.40
2011,08,20,11,23,23.50
2011,08,20,11,24,23.60
2011,08,20,11,25,23.60
2011,08,20,11,26,23.70
2011,08,20,11,27,23.80
2011,08,20,11,28,23.90
2011,08,20,11,29,24.00
2011,08,20,11,30,24.10
2011,08,20,11,31,24.20
2011,08,20,11,32,24.30
2011,08,20,11,33,24.30
2011,08,20,11,34,24.40
2011,08,20,11,35,24.50
2011,08,20,11,36,24.60
2011,08,20,11,37,24.60
2011,08,20,11,38,24.70
2011,08,20,11,39,24.70
2011,08,20,11,40,24.80
2011,08,20,11,41,24.90
2011,08,20,11,42,25.10
2011,08,20,11,43,25.20
2011,08,20,11,44,25.30
2011,08,20,11,45,25.30
2011,08,20,11,46,25.20
2011,08,20,11,47,25.20
2011,08,20,11,48,25.20
2011,08,20,11,49,25.20
2011,08,20,11,50,25.20
2011,08,20,11,51,25.30
2011,08,20,11,52,25.30
2011,08,20,11,53,25.30
2011,08,20,11,54,25.30
2011,08,20,11,55,25.30
2011,08,20,11,56,25.30
2011,08,20,11,57,25.30
2011,08,20,11,58,25.30
2011,08,20,11,59,25.30
2011,08,20,12,00,25.20
2011,08,20,12,01,25.20
2011,08,20,12,02,25.20
2011,08,20,12,03,25.20
2011,08,20,12,04,25.30
2011,08,20,12,05,25.30
2011,08,20,12,06,25.40
2011,08,20,12,07,25.50
2011,08,20,12,08,25.50
2011,08,20,12,09,25.50
2011,08,20,12,10,25.60
2011,08,20,12,11,25.60
2011,08,20,12,12,25.80
2011,08,20,12,13,25.90
2011,08,20,12,14,26.00
2011,08,20,12,15,26.00
2011,08,20,12,16,26.00
2011,08,20,12,17,26.00
2011,08,20,12,18,26.00
2011,08,20,12,19,26.00
2011,08,20,12,20,26.00
2011,08,20,12,21,25.90
2011,08,20,12,22,26.00
2011,08,20,12,23,26.10
2011,08,20,12,24,26.10
2011,08,20,12,25,26.20
2011,08,20,12,26,26.20
2011,08,20,12,27,26.20
2011,08,20,12,28,26.20
2011,08,20,12,29,26.30
2011,08,20,12,30,26.30
2011,08,20,12,31,26.30
2011,08,20,12,32,26.30
2011,08,20,12,33,26.30
2011,08,20,12,34,26.20
2011,08,20,12,35,26.30
2011,08,20,12,36,26.30
2011,08,20,12,37,26.30
2011,08,20,12,38,26.30
2011,08,20,12,39,26.30
2011,08,20,12,40,26.40
2011,08,20,12,41,26.40
2011,08,20,12,42,26.50
2011,08,20,12,43,26.60
2011,08,20,12,44,26.70
2011,08,20,12,45,26.80
2011,08,20,12,46,26.80
2011,08,20,12,47,26.90
2011,08,20,12,48,26.90
2011,08,20,12,49,27.00
2011,08,20,12,50,27.20
2011,08,20,12,51,27.30
2011,08,20,12,52,27.40
2011,08,20,12,53,27.50
2011,08,20,12,54,27.60
2011,08,20,12,55,27.80
2011,08,20,12,56,27.90
2011,08,20,12,57,27.90
2011,08,20,12,58,27.90
2011,08,20,12,59,27.80
2011,08,20,13,00,27.70
2011,08,20,13,01,27.60
2011,08,20,13,02,27.60
2011,08,20,13,03,27.60
2011,08,20,13,04,27.60
2011,08,20,13,05,27.60
2011,08,20,13,06,27.60
2011,08,20,13,07,27.70
2011,08,20,13,08,27.80
2011,08,20,13,09,27.80
2011,08,20,13,10,27.80
2011,08,20,13,11,27.80
2011,08,20,13,12,27.80
2011,08,20,13,13,27.80
2011,08,20,13,14,27.90
2011,08,20,13,15,27.90
2011,08,20,13,16,27.90
2011,08,20,13,17,27.90
2011,08,20,13,18,28.10
2011,08,20,13,19,28.60
2011,08,20,13,20,28.80
2011,08,20,13,21,28.90
2011,08,20,13,22,28.90
2011,08,20,13,23,28.80
2011,08,20,13,24,28.80
2011,08,20,13,25,28.80
2011,08,20,13,26,28.90
2011,08,20,13,27,28.90
2011,08,20,13,28,28.90
2011,08,20,13,29,28.80
2011,08,20,13,30,28.70
2011,08,20,13,31,28.50
2011,08,20,13,32,28.50
2011,08,20,13,33,28.40
2011,08,20,13,34,28.40
2011,08,20,13,35,28.50
2011,08,20,13,36,28.50
2011,08,20,13,37,28.50
2011,08,20,13,38,28.60
2011,08,20,13,39,28.70
2011,08,20,13,40,28.70
2011,08,20,13,41,28.70
2011,08,20,13,42,28.70
2011,08,20,13,43,28.60
2011,08,20,13,44,28.50
2011,08,20,13,45,28.40
2011,08,20,13,46,28.30
2011,08,20,13,47,28.20
2011,08,20,13,48,28.20
2011,08,20,13,49,28.10
2011,08,20,13,50,28.10
2011,08,20,13,51,28.10
2011,08,20,13,52,28.10
2011,08,20,13,53,28.00
2011,08,20,13,54,28.00
2011,08,20,13,55,28.10
2011,08,20,13,56,28.10
2011,08,20,13,57,28.10
2011,08,20,13,58,28.20
2011,08,20,13,59,28.30
2011,08,20,14,00,28.30
2011,08,20,14,01,28.40
2011,08,20,14,02,28.50
2011,08,20,14,03,28.50
2011,08,20,14,04,28.50
2011,08,20,14,05,28.60
2011,08,20,14,06,28.60
2011,08,20,14,07,28.70
2011,08,20,14,08,28.80
2011,08,20,14,09,28.80
2011,08,20,14,10,28.90
2011,08,20,14,11,29.00
2011,08,20,14,12,29.00
2011,08,20,14,13,29.00
2011,08,20,14,14,29.10
2011,08,20,14,15,29.10
2011,08,20,14,16,29.10
2011,08,20,14,17,29.10
2011,08,20,14,18,29.00
2011,08,20,14,19,29.10
2011,08,20,14,20,29.10
2011,08,20,14,21,29.10
2011,08,20,14,22,29.20
2011,08,20,14,23,29.20
2011,08,20,14,24,29.30
2011,08,20,14,25,29.30
2011,08,20,14,26,29.40
2011,08,20,14,27,29.50
2011,08,20,14,28,29.60
2011,08,20,14,29,29.70
2011,08,20,14,30,29.90
2011,08,20,14,31,29.90
2011,08,20,14,32,29.90
2011,08,20,14,33,29.90
2011,08,20,14,34,29.80
2011,08,20,14,35,29.90
2011,08,20,14,36,29.90
2011,08,20,14,37,29.80
2011,08,20,14,38,29.80
2011,08,20,14,39,29.80
2011,08,20,14,40,29.90
2011,08,20,14,41,30.00
2011,08,20,14,42,30.10
2011,08,20,14,43,30.20
2011,08,20,14,44,30.20
2011,08,20,14,45,30.20
2011,08,20,14,46,30.30
2011,08,20,14,47,30.30
2011,08,20,14,48,30.30
2011,08,20,14,49,30.30
2011,08,20,14,50,30.30
2011,08,20,14,51,30.30
2011,08,20,14,52,30.30
2011,08,20,14,53,30.20
2011,08,20,14,54,30.20
2011,08,20,14,55,30.20
2011,08,20,14,56,30.10
2011,08,20,14,57,30.10
2011,08,20,14,58,30.10
2011,08,20,14,59,30.10
2011,08,20,15,00,30.10
2011,08,20,15,01,30.20
2011,08,20,15,02,30.20
2011,08,20,15,03,30.30
2011,08,20,15,04,30.40
2011,08,20,15,05,30.40
2011,08,20,15,06,30.40
2011,08,20,15,07,30.50
2011,08,20,15,08,30.50
2011,08,20,15,09,30.60
2011,08,20,15,10,30.60
2011,08,20,15,11,30.60
2011,08,20,15,12,30.50
2011,08,20,15,13,30.40
2011,08,20,15,14,30.40
2011,08,20,15,15,30.30
2011,08,20,15,16,30.40
2011,08,20,15,17,30.40
2011,08,20,15,18,30.50
2011,08,20,15,19,30.60
2011,08,20,15,20,30.60
2011,08,20,15,21,30.60
2011,08,20,15,22,30.70
2011,08,20,15,23,30.70
2011,08,20,15,24,30.80
2011,08,20,15,25,30.90
2011,08,20,15,26,30.90
2011,08,20,15,27,30.80
2011,08,20,15,28,30.80
2011,08,20,15,29,30.70
2011,08,20,15,30,30.60
2011,08,20,15,31,30.50
2011,08,20,15,32,30.50
2011,08,20,15,33,30.50
2011,08,20,15,34,30.50
2011,08,20,15,35,30.60
2011,08,20,15,36,30.60
2011,08,20,15,37,30.60
2011,08,20,15,38,30.60
2011,08,20,15,39,30.60
2011,08,20,15,40,30.60
2011,08,20,15,41,30.50
2011,08,20,15,42,30.40
2011,08,20,15,43,30.30
2011,08,20,15,44,30.20
2011,08,20,15,45,30.20
2011,08,20,15,46,30.30
2011,08,20,15,47,30.40
2011,08,20,15,48,30.40
2011,08,20,15,49,30.50
2011,08,20,15,50,30.60
2011,08,20,15,51,30.60
2011,08,20,15,52,30.60
2011,08,20,15,53,30.60
2011,08,20,15,54,30.60
2011,08,20,15,55,30.70
2011,08,20,15,56,30.80
2011,08,20,15,57,30.70
2011,08,20,15,58,30.60
2011,08,20,15,59,30.40
2011,08,20,16,00,30.30
2011,08,20,16,01,30.20
2011,08,20,16,02,30.20
2011,08,20,16,03,30.20
2011,08,20,16,04,30.20
2011,08,20,16,05,30.20
2011,08,20,16,06,30.20
2011,08,20,16,07,30.10
2011,08,20,16,08,30.10
2011,08,20,16,09,30.10
2011,08,20,16,10,30.10
2011,08,20,16,11,30.00
2011,08,20,16,12,30.00
2011,08,20,16,13,30.10
2011,08,20,16,14,30.20
2011,08,20,16,15,30.30
2011,08,20,16,16,30.30
2011,08,20,16,17,30.30
2011,08,20,16,18,30.30
2011,08,20,16,19,30.40
2011,08,20,16,20,30.40
2011,08,20,16,21,30.40
2011,08,20,16,22,30.50
2011,08,20,16,23,30.60
2011,08,20,16,24,30.70
2011,08,20,16,25,30.80
2011,08,20,16,26,30.80
2011,08,20,16,27,30.80
2011,08,20,16,28,30.80
2011,08,20,16,29,30.80
2011,08,20,16,30,30.80
2011,08,20,16,31,30.80
2011,08,20,16,32,30.70
2011,08,20,16,33,30.70
2011,08,20,16,34,30.70
2011,08,20,16,35,30.70
2011,08,20,16,36,30.60
2011,08,20,16,37,30.60
2011,08,20,16,38,30.60
2011,08,20,16,39,30.60
2011,08,20,16,40,30.60
2011,08,20,16,41,30.60
2011,08,20,16,42,30.50
2011,08,20,16,43,30.40
2011,08,20,16,44,30.40
2011,08,20,16,45,30.50
2011,08,20,16,46,30.50
2011,08,20,16,47,30.50
2011,08,20,16,48,30.60
2011,08,20,16,49,30.70
2011,08,20,16,50,30.70
2011,08,20,16,51,30.80
2011,08,20,16,52,30.90
2011,08,20,16,53,30.90
2011,08,20,16,54,31.00
2011,08,20,16,55,31.00
2011,08,20,16,56,30.90
2011,08,20,16,57,30.90
2011,08,20,16,58,30.80
2011,08,20,16,59,30.80
2011,08,20,17,00,30.80
2011,08,20,17,01,30.70
2011,08,20,17,02,30.70
2011,08,20,17,03,30.60
2011,08,20,17,04,30.60
2011,08,20,17,05,30.60
2011,08,20,17,06,30.70
2011,08,20,17,07,30.70
2011,08,20,17,08,30.70
2011,08,20,17,09,30.70
2011,08,20,17,10,30.70
2011,08,20,17,11,30.80
2011,08,20,17,12,30.90
2011,08,20,17,13,30.90
2011,08,20,17,14,31.00
2011,08,20,17,15,31.00
2011,08,20,17,16,31.00
2011,08,20,17,17,30.90
2011,08,20,17,18,30.90
2011,08,20,17,19,30.80